Weather History for KRWI - January, 2014

Change the Weather History Date:

Thursday, January 2, 2014

  Actual Average Record
Temperature  
Mean Temperature 44 °F -  
Max Temperature 48 °F 53 °F 75 °F (1966)
Min Temperature 41 °F 34 °F 17 °F (1977)
Degree Days  
Heating Degree Days 20    
Moisture  
Dew Point 43 °F    
Average Humidity 88    
Maximum Humidity 96    
Minimum Humidity 68    
Precipitation  
Precipitation 0.25 in - - ()
Sea Level Pressure  
Sea Level Pressure 29.76 in    
Wind  
Wind Speed 2 mph (SSW)    
Max Wind Speed 13 mph    
Max Gust Speed 20 mph    
Visibility 7 miles    
Events Rain    
Averages and records for this station are not official NWS values.
T = Trace of Precipitation, MM = Missing Value Source: NWS Daily Summary

Daily Weather History Graph

Daily Weather History Graph

Search for Another Location

Airport or City:

Trip Planner

Search our weather history database for the weather conditions in past years. The results will help you decide how hot, cold, wet, or windy it might be!

Date:

Astronomy

Jan. 02, 2014 Rise Set
Actual Time 7:21 AM EST 5:09 PM EST
Civil Twilight 6:53 AM EST 5:37 PM EST
Nautical Twilight 6:21 AM EST 6:09 PM EST
Astronomical Twilight 5:50 AM EST 6:40 PM EST
Moon 8:05 AM EST (1/2) 6:59 PM EST (1/2)
Length of Visible Light 10h 44m
Length of Day
9h 47m
New Moon, 2% of the Moon is Illuminated
Jan 2
New Moon
Jan 7
First Quarter
Jan 15
Full
Jan 24
Last Quarter
Jan 30
New

Hourly Weather History & Observations

Time (EST) Temp. Windchill Dew Point Humidity Pressure Visibility Wind Dir Wind Speed Gust Speed Precip Events Conditions
12:53 AM 45.0 °F - 37.0 °F 74% 30.14 in 10.0 mi Calm Calm - N/A   Overcast
1:53 AM 45.0 °F - 37.0 °F 74% 30.12 in 10.0 mi Calm Calm - N/A   Overcast
2:53 AM 44.1 °F - 34.0 °F 68% 30.10 in 10.0 mi Calm Calm - N/A   Clear
3:53 AM 41.0 °F - 36.0 °F 82% 30.08 in 10.0 mi Calm Calm - N/A   Clear
4:53 AM 42.1 °F - 37.0 °F 82% 30.04 in 10.0 mi Calm Calm - N/A   Scattered Clouds
5:53 AM 42.1 °F - 37.9 °F 85% 30.02 in 10.0 mi Calm Calm - N/A   Overcast
6:53 AM 42.1 °F - 39.0 °F 89% 30.02 in 10.0 mi Calm Calm - 0.00 in   Overcast
7:53 AM 42.1 °F - 39.0 °F 89% 29.99 in 10.0 mi Calm Calm - 0.01 in   Mostly Cloudy
8:53 AM 43.0 °F - 39.9 °F 89% 29.95 in 10.0 mi Calm Calm - N/A   Partly Cloudy
9:53 AM 45.0 °F - 41.0 °F 86% 29.96 in 10.0 mi Calm Calm - N/A   Mostly Cloudy
10:53 AM 46.9 °F - 39.0 °F 74% 29.92 in 10.0 mi SSE 3.5 mph - N/A   Clear
11:53 AM 46.9 °F - 41.0 °F 80% 29.87 in 10.0 mi Calm Calm - N/A   Overcast
12:07 PM 48.0 °F - 42.1 °F 80% 29.86 in 10.0 mi Calm Calm - N/A   Overcast
12:33 PM 46.9 °F - 41.0 °F 80% 29.83 in 10.0 mi South 3.5 mph - 0.00 in Rain Light Rain
12:53 PM 46.9 °F - 42.1 °F 83% 29.82 in 10.0 mi South 3.5 mph - 0.00 in Rain Light Rain
1:20 PM 48.0 °F - 42.1 °F 80% 29.78 in 10.0 mi SSE 3.5 mph - 0.00 in   Overcast
1:53 PM 48.0 °F - 42.1 °F 80% 29.77 in 10.0 mi SSE 3.5 mph - 0.00 in   Overcast
2:53 PM 48.0 °F - 43.0 °F 83% 29.74 in 10.0 mi SSE 5.8 mph - N/A   Overcast
3:22 PM 48.9 °F - 44.1 °F 83% 29.72 in 10.0 mi South 3.5 mph - N/A   Overcast
3:53 PM 48.9 °F - 44.1 °F 83% 29.71 in 9.0 mi South 4.6 mph - N/A   Overcast
4:10 PM 48.9 °F - 45.0 °F 86% 29.70 in 7.0 mi Calm Calm - N/A   Overcast
4:44 PM 48.0 °F - 46.0 °F 93% 29.68 in 2.0 mi Calm Calm - 0.00 in Rain Light Rain
4:53 PM 48.0 °F - 46.0 °F 93% 29.68 in 1.8 mi Calm Calm - 0.00 in   Overcast
5:17 PM 48.0 °F - 46.0 °F 93% 29.65 in 2.0 mi South 4.6 mph - 0.01 in Rain Light Rain
5:30 PM 48.0 °F - 46.9 °F 96% 29.65 in 1.8 mi SSE 3.5 mph - 0.02 in   Overcast
5:50 PM 48.2 °F - 46.4 °F 93% 29.64 in 2.0 mi SSE 4.6 mph - 0.03 in Rain Light Rain
5:53 PM 48.0 °F - 46.9 °F 96% 29.64 in 2.0 mi SSE 5.8 mph - 0.03 in Rain Light Rain
6:27 PM 48.0 °F - 46.9 °F 96% 29.62 in 3.0 mi South 3.5 mph - 0.02 in Rain Light Rain
6:34 PM 48.0 °F - 46.9 °F 96% 29.62 in 2.5 mi South 4.6 mph - 0.02 in Rain Light Rain
6:49 PM 48.2 °F - 46.4 °F 93% 29.62 in 2.5 mi South 4.6 mph - 0.04 in Rain Light Rain
6:53 PM 48.0 °F - 46.9 °F 96% 29.62 in 3.0 mi South 3.5 mph - 0.05 in Rain Light Rain
7:00 PM 48.0 °F - 46.9 °F 96% 29.62 in 2.5 mi SW 4.6 mph - 0.01 in Rain Light Rain
7:20 PM 48.0 °F - 46.9 °F 96% 29.62 in 3.0 mi Calm Calm - 0.07 in Rain Light Rain
7:53 PM 48.0 °F - 46.9 °F 96% 29.61 in 4.0 mi Calm Calm - 0.09 in Rain Light Rain
8:00 PM 48.0 °F - 46.9 °F 96% 29.61 in 5.0 mi WSW 3.5 mph - 0.00 in Rain Light Rain
8:16 PM 48.0 °F - 46.9 °F 96% 29.60 in 4.0 mi Calm Calm - 0.00 in Rain Light Rain
8:53 PM 48.0 °F - 46.9 °F 96% 29.59 in 4.0 mi West 3.5 mph - 0.02 in Rain Light Rain
9:09 PM 48.0 °F - 46.9 °F 96% 29.59 in 5.0 mi West 5.8 mph - 0.01 in Rain Light Rain
9:49 PM 48.2 °F - 46.4 °F 93% 29.56 in 8.0 mi NNW 6.9 mph - 0.04 in Rain Light Rain
9:53 PM 48.0 °F - 46.0 °F 93% 29.55 in 8.0 mi NNW 5.8 mph - 0.05 in Rain Light Rain
10:53 PM 46.0 °F 40.2 °F 43.0 °F 89% 29.59 in 10.0 mi WNW 12.7 mph 18.4 mph 0.00 in   Overcast
11:07 PM 46.0 °F 41.4 °F 43.0 °F 89% 29.58 in 10.0 mi WNW 9.2 mph - N/A   Overcast
11:50 PM 44.6 °F 38.4 °F 42.8 °F 93% 29.60 in 10.0 mi WNW 12.7 mph 19.6 mph N/A   Overcast
11:53 PM 45.0 °F 39.3 °F 42.1 °F 90% 29.61 in 10.0 mi WNW 11.5 mph 18.4 mph N/A   Overcast